Volver al catálogo

DELTA 4 R/B

LostMEO
NORAD 40535·ROCKET BODY·🇺🇸 United States

Lanzado Mar 25, 2015 desde Cape Canaveral Space Force Station

Loading…

Próximos Pases (próximas 24 horas)

TLE

ObsoletoSource: Space-Track

Época: Aug 5, 2026, 04:39 UTC

1 40535U 15013B   26217.19384281  .00000098  00000-0  00000-0 0  9998
2 40535  52.6345 214.2542 0033004  67.6102 292.7505  1.92974634 80100

Sigue DELTA 4 R/B en tiempo real con AllMySat

Download on the App Store